Location: Rio de Janeiro
(22.9068°S, 43.1729°W)
Time: 12:49:37
(UTC-03:00)

Envisat - Pass Details

Date: 08 December 2023
Orbit: 762 x 764 km, 98.3° (Epoch: 03 March)

Event Time Altitude Azimuth Distance (km) Brightness Sun altitude
Exits shadow 02:10:03 26° 78° (ENE) 1,472 4.6 -32.3°
Maximum altitude 02:11:27 30° 107° (ESE) 1,346 4.6 -32.0°
Drops below altitude 10° 02:15:53 10° 167° (SSE) 2,319 6.2 -31.4°
Sets 02:18:25 0° 177° (S) 3,251 6.9 -31.0°
